Regional Weather Roundup
Issued by NWS

Home | Current Version | Previous Version | Text Only | Print | Product List | Glossary On
Versions: 1 2 3 4 5 6 7 8 9 10 11 12 13 14 15 16 17 18 19 20 21 22 23 24 25 26 27 28 29 30 31 32 33 34 35 36 37 38 39 40 41 42 43 44 45 46 47 48 49 50
000
ASHW40 PHFO 291943
RWRHI

WEATHER ROUNDUP FOR HAWAII
NATIONAL WEATHER SERVICE HONOLULU HI
900 AM HST MON AUG 29 2016

THIS IS AN AUTOMATED REPORT THAT HAS NOT BEEN QUALITY CONTROLLED.

NOTE..."FAIR" INDICATES FEW OR NO CLOUDS BELOW 12,000 FEET WITH NO
SIGNIFICANT WEATHER AND/OR OBSTRUCTIONS TO VISIBILITY.

* - THESE SITES REPORT LIMITED FIELDS

HIZ001>004-292000-
KAUAI-NIIHAU-

CITY           SKY/WX    TMP DP  RH WIND       PRES   REMARKS
LIHUE APT      MOSUNNY   83  70  64 NE15      30.04R
PORT ALLEN*      N/A     82 N/A N/A E18G26      N/A
POIPU*           N/A     81 N/A N/A NE9G18      N/A
PRINCEVILLE*     N/A     79 N/A N/A E10G17      N/A
KOKOLE POINT*    N/A     82 N/A N/A MISG        N/A
MOLOAA DAIRY*    N/A     82  70  65 E8G17       N/A
WAIMEA HTS*      N/A     90  68  48 E5          N/A  HX  93
PUU OPAE*        N/A     79  66  65 S3          N/A
PUU LUA*       NOT AVBL
MAKAHA RIDGE*    N/A     73  68  83 W2          N/A
$$

HIZ005>011-292000-
OAHU-

CITY           SKY/WX    TMP DP  RH WIND       PRES   REMARKS
HONOLULU       PTSUNNY   82  67  60 E13G22    30.01R
KALAELOA       MOSUNNY   83  68  60 NE12G17   30.02S
KANEOHE MCB    MOSUNNY   81  69  67 E15       30.01R
WHEELER FIELD  FAIR      78  69  74 NE14      30.04R
BELLOWS*         N/A    N/A N/A N/A NE18        N/A
KAHUKU*          N/A    N/A N/A N/A VRB1        N/A
WHEELER*         N/A    N/A N/A N/A NE10G18     N/A
WAIANAE HARBOR NOT AVBL
DILLINGHAM*      N/A     86  72  62 MISG        N/A  HX  92
KAHUKU TRN*      N/A     75  66  73 N12G22      N/A
KAWAILOA*        N/A     73  66  78 E13G28      N/A
KII*             N/A     81  70  69 E18G26      N/A
MAKUA RANGE*     N/A     82  70  65 NW7G18      N/A
OAHU FOREST NW   N/A     73  66  78 E24G41      N/A
SCHOFIELD BRK*   N/A     81  70  69 MISG        N/A
SCHOFIELD S*   NOT AVBL
WAIANAE VLY*     N/A     84  70  61 VRB8G24     N/A
KUAOKALA*        N/A     79  68  69 E17G30      N/A
HONOULIUULI*   NOT AVBL
MOKUOLOE IS*   NOT AVBL
PALEHUA*         N/A     72  66  83 NE12G20     N/A
WAIAWA PHB*    NOT AVBL
$$

HIZ012>013-292000-
MOLOKAI-

CITY           SKY/WX    TMP DP  RH WIND       PRES   REMARKS
MOLOKAI AIRPT  MOSUNNY   81  69  67 NE21G32   30.02R
KALAUPAPA      NOT AVBL
MAKAPULAPAI*     N/A     81  70  69 E20G30      N/A
MOLOKAI 1*       N/A     73  64  73 SE3G12      N/A
PUU ALII*        N/A     61  61 100 NE2G12      N/A
$$

HIZ016-292000-
KAHOOLAWE-

CITY           SKY/WX    TMP DP  RH WIND       PRES   REMARKS
KAHOOLAWE*       N/A     73 N/A N/A SE1         N/A
HAKIOAWA*        N/A     79  69  70 MISG      30.43S
HONOKANAIA*      N/A     82  68  62 NE15G23   29.93R
KANELOA*         N/A     79  70  73 E18G29    30.06R
KEALIALALO*    NOT AVBL
LUA MAKIKA*    NOT AVBL
$$

HIZ014>015-292000-
LANAI-

CITY           SKY/WX    TMP DP  RH WIND       PRES   REMARKS
LANAI CITY     PTSUNNY   75  68  78 E17       30.05R
LANAI 1*         N/A     79  72  78 NE22G35     N/A
$$

HIZ017>028-292000-
MAUI-

CITY           SKY/WX    TMP DP  RH WIND       PRES   REMARKS
KAHULUI        MOSUNNY   83  68  60 NE16G22   30.01S
KAPALUA-W MAUI MOSUNNY   81  66  61 NE13G24   30.01
HANA AIRPORT     N/A     81  72  74 NE12      30.06S
HANA*            N/A     79 N/A N/A E6          N/A
HALEAKALA SUMM   N/A     54  37  54 NW5G21      N/A
MAALAEA BAY*     N/A     84 N/A N/A VRB23G31    N/A
HALEAKALA*     NOT AVBL
KAUPO GAP*       N/A     77  70  78 SE2G8       N/A
KULA 1*          N/A     60  56  86 NW3         N/A
$$

HIZ023>026-292000-
BIG ISLAND OF HAWAII COAST AND LOWER SLOPES-

CITY           SKY/WX    TMP DP  RH WIND       PRES   REMARKS
KAILUA KONA    SUNNY     84  72  67 SW7       29.95S
HILO           CLOUDY    76  69  79 W8        30.03R
HONOKAA*         N/A     73 N/A N/A VRB1        N/A
KAWAIHAE MWT*    N/A     84 N/A N/A W5          N/A
KAWAIHAE*        N/A     81 N/A N/A W6        29.96S
SOUTH POINT*     N/A     75 N/A N/A N18G28      N/A
UPOLU AIRPORT* NOT AVBL
KAMUELA*       CLEAR     75  61  60 NE17      30.11S
HAKALAU*         N/A     59  57  94 NE3         N/A
KALOKO-HONOKO*   N/A     86  72  62 S6        29.94F HX  92
PALI 2*          N/A     73  63  68 S18G25      N/A
KEALAKOMO*       N/A     81  66  61 NE17G23     N/A
KAUPULEHU*       N/A     82  63  51 NE13G23     N/A
KAPAPALA*        N/A     75  66  74 SW3         N/A
LOWER KAHUKU*    N/A     63  59  88 E2G9        N/A
PUHE CS*         N/A     82  68  61 W3          N/A
PUHO CS*         N/A     87  73  63 S2          N/A  HX  95
PTA KEAMUKU*     N/A    N/A N/A N/A CALM        N/A
WAIKOLOA*        N/A     82  61  47 NE17G30     N/A
$$

HIZ027>028-292000-
BIG ISLAND OF HAWAII INTERIOR AND SUMMMITS-

CITY           SKY/WX    TMP DP  RH WIND       PRES   REMARKS
BRADSHAW FIELD MOSUNNY   66  53  64 W5        30.33S
MK VISITOR CEN   N/A     55  46  71 SW6         N/A
MAUNA KEA*       N/A     45  18  33 SE14        N/A
MAUNA LOA*       N/A     48  36  61 MISG        N/A
MAUNA LOA 1*   NOT AVBL
PTA KIPUKA*      N/A     54  37  54 VRB3        N/A
PTA RANGE 17*    N/A     72  55  56 N2          N/A
PTA WEST*        N/A     72  57  60 NW5G14      N/A
NENE CABIN*      N/A     63  57  82 S3          N/A
AHUMOA*          N/A     67  56  69 NW5         N/A
PTA PORTABLE*  NOT AVBL
PUU MALI*        N/A     64  57  77 NE7         N/A
$$

HIC003-292000-
NORTHWEST ISLANDS-

CITY           SKY/WX    TMP DP  RH WIND       PRES   REMARKS
MIDWAY ISLAND  MOSUNNY   81  75  83 W3        29.97R
MIDWAY NOS*      N/A     79 N/A N/A MISG      29.96R
FRENCH FRIGATE NOT AVBL
$$

PHZ110>124-180-292000-
BUOY REPORTS

STATION/POSITION TIME  TEMP    WIND        PRES    WAVE   SWELL
                       AIR SEA DIR/SP/G            HT/PER HT/DIR
                 (UTC) (F)     (DEG/KT/KT) (MB)    (FT/S) (FT/D)
BUOY 51001       NOT AVBL
BUOY 51101       1850   80 81   90/ 16/ 19 1017.4R   6/ 8   5/100
BUOY 51100       NOT AVBL
BUOY 51002       NOT AVBL
BUOY 51003       1850   81 83   70/ 10/ 12 1014.4R   6/ 8   5/ 60
BUOY 51004       1850   80 82   30/ 14/ 17 1015.1R   6/ 7   3/ 70
BARBERS PT BUOY  NOT AVBL
WAIMEA BAY BUOY  1904      81                N/A     5/ 7
KAILUA BAY BUOY  1911      81                N/A     6/ 8   2/ 90
LANAI BUOY       1915      83                N/A     3/12   2/210
BARBERS PT 2     NOT AVBL
PAUWELA MAUI     1909      80                N/A     6/ 7
HILO             1912      81                N/A     5/ 8   2/120
KANEOHE BAY BUOY 1906      80                N/A     5/ 6
HANALEI KAUAI    NOT AVBL
KAHULUI HARBOR   1900   80 81   60/ 10/ 15 1016.4R
HONOLULU HARBOR  1900   81 81   90/  5/  9 1016.9R
KILO NALU        NOT AVBL
HILO HARBOR      1900   75 80  270/  9/ 10 1016.5R
MOKUOLOE         1800   80 81   80/ 12/ 16 1016.7R
NAWILIWILI       1900   79 81   70/ 15/ 16 1017.0R
WHOTS BUOY       NOT AVBL
BUOY 51028       NOT AVBL
$$

......................KEY........................................
  SKY/WX - SKY CONDITIONS/PRESENT WEATHER
  TMP    - TEMPERATURE IN FAHRENHEIT
  DWPT   - DEWPOINT IN FAHRENHEIT
  RH     - RELATIVE HUMIDITY IN PERCENT
  WIND   - DIRECTION AND SPEED /MPH FOR ISLANDS...KTS FOR BUOYS/
  PRES   - MEAN SEA LEVEL PRESSURE IN INCHES OF HG
  VSB    - VISIBILITY IN MILES
  HX     - HEAT INDEX
  WCI    - WIND CHILL INDEX
  VRB    - VARIABLE WIND DIRECTION
  N/A    - NOT AVAILABLE




USA.gov is the U.S. government's official web portal to all federal, state and local government web resources and services.